When you browse on this site, cookies collect data to enhance your experience and personalize the content and advertising you see.
Visit our Privacy Policy to learn more. By continuing to use the site, you agree to this use of cookies and data.
  • In United Kingdom
  • List of Countries
  • For 7 days
  • Water Temperature
  • Weather Map
  • Weather Widgets
  • user-avatar
    Login

    Hourly Weather Dalilar

    Today, 21 October, Monday

    Time Temperature Precipitation Wind Pressure Humidity
    00:00 +18°C° 0 mm 1 mps 737 mmHg 78%
    01:00 +16°C° 0 mm 1 mps 737 mmHg 82%
    02:00 +15°C° 0 mm 1 mps 737 mmHg 85%
    03:00 +15°C° 0 mm 1 mps 737 mmHg 88%
    04:00 +15°C° 0 mm 1 mps 737 mmHg 89%
    05:00 +14°C° 0 mm 1 mps 737 mmHg 90%
    06:00 +13°C° 0 mm 0 mps 737 mmHg 91%
    07:00 +15°C° 0 mm 1 mps 737 mmHg 86%
    08:00 +16°C° 0 mm 1 mps 738 mmHg 80%
    09:00 +19°C° 0 mm 1 mps 738 mmHg 74%
    10:00 +18°C° 0 mm 2 mps 737 mmHg 70%
    11:00 +19°C° 0 mm 2 mps 737 mmHg 66%
    12:00 +20°C° 0 mm 2 mps 737 mmHg 62%
    13:00 +21°C° 0 mm 2 mps 737 mmHg 59%
    14:00 +21°C° 0 mm 2 mps 736 mmHg 57%
    15:00 +23°C° 0 mm 2 mps 736 mmHg 54%
    16:00 +21°C° 0 mm 2 mps 736 mmHg 55%
    17:00 +20°C° 0 mm 2 mps 736 mmHg 57%
    18:00 +20°C° 0 mm 1 mps 736 mmHg 58%
    19:00 +19°C° 0 mm 1 mps 736 mmHg 59%
    20:00 +19°C° 0 mm 1 mps 736 mmHg 60%
    21:00 +18°C° 0 mm 1 mps 736 mmHg 62%
    22:00 +18°C° 0 mm 1 mps 736 mmHg 63%
    23:00 +16°C° 0 mm 2 mps 737 mmHg 64%

    Tomorrow, 22 October, Tuesday

    Time Temperature Precipitation Wind Pressure Humidity
    00:00 +16°C° 0 mm 2 mps 737 mmHg 66%
    01:00 +15°C° 0 mm 2 mps 736 mmHg 69%
    02:00 +15°C° 0 mm 1 mps 736 mmHg 73%
    03:00 +14°C° 0 mm 1 mps 736 mmHg 77%
    04:00 +14°C° 0 mm 1 mps 736 mmHg 78%
    05:00 +13°C° 0 mm 1 mps 736 mmHg 80%
    06:00 +12°C° 0 mm 0 mps 736 mmHg 82%
    07:00 +14°C° 0 mm 1 mps 736 mmHg 76%
    08:00 +16°C° 0 mm 1 mps 736 mmHg 70%
    09:00 +18°C° 0 mm 1 mps 736 mmHg 64%
    10:00 +18°C° 0 mm 2 mps 736 mmHg 60%
    11:00 +19°C° 0 mm 2 mps 736 mmHg 55%
    12:00 +20°C° 0 mm 2 mps 736 mmHg 51%
    13:00 +20°C° 0 mm 2 mps 735 mmHg 49%
    14:00 +21°C° 0 mm 2 mps 735 mmHg 47%
    15:00 +21°C° 0 mm 2 mps 734 mmHg 45%
    16:00 +20°C° 0 mm 2 mps 735 mmHg 48%
    17:00 +19°C° 0 mm 2 mps 735 mmHg 51%
    18:00 +18°C° 0 mm 2 mps 735 mmHg 54%
    19:00 +18°C° 0 mm 1 mps 735 mmHg 55%
    20:00 +18°C° 0 mm 1 mps 735 mmHg 57%
    21:00 +16°C° 0 mm 1 mps 735 mmHg 58%
    22:00 +16°C° 0 mm 1 mps 735 mmHg 60%
    23:00 +15°C° 0 mm 1 mps 736 mmHg 62%

    Day after tomorrow, 23 October, Wednesday

    Time Temperature Precipitation Wind Pressure Humidity
    00:00 +15°C° 0 mm 1 mps 736 mmHg 64%
    01:00 +14°C° 0 mm 1 mps 735 mmHg 68%
    02:00 +14°C° 0 mm 1 mps 735 mmHg 72%
    03:00 +13°C° 0 mm 1 mps 735 mmHg 76%
    04:00 +13°C° 0 mm 1 mps 735 mmHg 78%
    05:00 +12°C° 0 mm 0 mps 735 mmHg 80%
    06:00 +11°C° 0 mm 0 mps 735 mmHg 82%
    07:00 +13°C° 0 mm 1 mps 735 mmHg 76%
    08:00 +15°C° 0 mm 1 mps 736 mmHg 71%
    09:00 +16°C° 0 mm 1 mps 736 mmHg 65%
    10:00 +17°C° 0 mm 2 mps 736 mmHg 61%
    11:00 +18°C° 0 mm 2 mps 735 mmHg 57%
    12:00 +19°C° 0 mm 3 mps 735 mmHg 53%
    13:00 +19°C° 0 mm 3 mps 735 mmHg 51%
    14:00 +20°C° 0 mm 3 mps 735 mmHg 49%
    15:00 +20°C° 0 mm 3 mps 735 mmHg 47%
    16:00 +19°C° 0 mm 3 mps 735 mmHg 52%
    17:00 +18°C° 0 mm 2 mps 735 mmHg 56%
    18:00 +17°C° 0 mm 2 mps 735 mmHg 61%
    19:00 +17°C° 0 mm 2 mps 736 mmHg 64%
    20:00 +16°C° 0 mm 1 mps 736 mmHg 67%
    21:00 +15°C° 0 mm 1 mps 736 mmHg 71%
    22:00 +15°C° 0 mm 1 mps 736 mmHg 74%
    23:00 +14°C° 0 mm 1 mps 736 mmHg 78%

    24 October, Thursday

    Time Temperature Precipitation Wind Pressure Humidity
    00:00 +14°C° 0 mm 1 mps 736 mmHg 82%
    01:00 +14°C° 0 mm 1 mps 736 mmHg 83%
    02:00 +13°C° 0 mm 1 mps 736 mmHg 84%
    03:00 +12°C° 0 mm 0 mps 736 mmHg 85%
    04:00 +12°C° 0 mm 0 mps 736 mmHg 85%
    05:00 +11°C° 0 mm 0 mps 736 mmHg 86%
    06:00 +11°C° 0 mm 0 mps 736 mmHg 87%
    07:00 +13°C° 0 mm 1 mps 736 mmHg 81%
    08:00 +15°C° 0 mm 1 mps 736 mmHg 75%
    09:00 +16°C° 0 mm 1 mps 736 mmHg 69%
    10:00 +18°C° 0 mm 1 mps 736 mmHg 66%
    11:00 +18°C° 0 mm 2 mps 735 mmHg 62%
    12:00 +19°C° 0 mm 2 mps 735 mmHg 59%
    13:00 +19°C° 0 mm 2 mps 735 mmHg 58%
    14:00 +20°C° 0 mm 2 mps 734 mmHg 56%
    15:00 +20°C° 0 mm 2 mps 734 mmHg 55%
    16:00 +19°C° 0 mm 2 mps 734 mmHg 59%
    17:00 +18°C° 0 mm 2 mps 734 mmHg 63%
    18:00 +17°C° 0 mm 2 mps 735 mmHg 66%
    19:00 +18°C° 0 mm 1 mps 735 mmHg 68%
    20:00 +16°C° 0 mm 1 mps 735 mmHg 69%
    21:00 +16°C° 0 mm 1 mps 735 mmHg 71%
    22:00 +16°C° 0 mm 1 mps 735 mmHg 73%
    23:00 +15°C° 0 mm 1 mps 735 mmHg 75%

    25 October, Friday

    Time Temperature Precipitation Wind Pressure Humidity
    00:00 +15°C° 0 mm 1 mps 735 mmHg 78%
    01:00 +14°C° 0 mm 0 mps 734 mmHg 78%
    02:00 +14°C° 0 mm 0 mps 734 mmHg 79%
    03:00 +14°C° 0 mm 0 mps 734 mmHg 79%
    04:00 +14°C° 0 mm 0 mps 734 mmHg 81%
    05:00 +14°C° 0 mm 0 mps 734 mmHg 83%
    06:00 +13°C° 0 mm 0 mps 734 mmHg 84%
    07:00 +14°C° 0 mm 0 mps 734 mmHg 80%
    08:00 +16°C° 0 mm 1 mps 734 mmHg 75%
    09:00 +18°C° 0 mm 1 mps 734 mmHg 70%
    10:00 +19°C° 0 mm 1 mps 734 mmHg 66%
    11:00 +19°C° 0 mm 2 mps 734 mmHg 62%
    12:00 +20°C° 0 mm 2 mps 733 mmHg 58%
    13:00 +20°C° 0 mm 2 mps 733 mmHg 57%
    14:00 +21°C° 0 mm 2 mps 733 mmHg 56%
    15:00 +21°C° 0 mm 2 mps 733 mmHg 55%
    16:00 +20°C° 0 mm 2 mps 733 mmHg 59%
    17:00 +19°C° 0 mm 2 mps 733 mmHg 63%
    18:00 +18°C° 0 mm 2 mps 733 mmHg 66%
    19:00 +17°C° 0 mm 2 mps 733 mmHg 70%
    20:00 +17°C° 0 mm 2 mps 733 mmHg 73%
    21:00 +16°C° 0 mm 2 mps 734 mmHg 77%
    22:00 +16°C° 0 mm 1 mps 734 mmHg 81%
    23:00 +15°C° 0 mm 1 mps 734 mmHg 85%

    26 October, Saturday

    Time Temperature Precipitation Wind Pressure Humidity
    00:00 +15°C° 0 mm 1 mps 734 mmHg 88%
    01:00 +15°C° 0 mm 1 mps 734 mmHg 89%
    02:00 +14°C° 0 mm 0 mps 734 mmHg 90%
    03:00 +13°C° 0 mm 0 mps 734 mmHg 91%
    04:00 +13°C° 0 mm 0 mps 734 mmHg 91%
    05:00 +13°C° 0 mm 0 mps 734 mmHg 91%
    06:00 +14°C° 0 mm 1 mps 734 mmHg 91%
    07:00 +15°C° 0 mm 1 mps 734 mmHg 87%
    08:00 +16°C° 0 mm 1 mps 735 mmHg 83%
    09:00 +18°C° 0 mm 1 mps 735 mmHg 80%
    10:00 +18°C° 0 mm 1 mps 735 mmHg 79%
    11:00 +18°C° 0 mm 2 mps 735 mmHg 78%
    12:00 +18°C° 0 mm 3 mps 735 mmHg 78%
    13:00 +18°C° 0.1 mm 3 mps 734 mmHg 80%
    14:00 +17°C° 0.1 mm 3 mps 734 mmHg 83%
    15:00 +17°C° 0.1 mm 4 mps 734 mmHg 86%
    16:00 +17°C° 0.1 mm 4 mps 734 mmHg 88%
    17:00 +16°C° 0.1 mm 3 mps 735 mmHg 89%
    18:00 +16°C° 0.1 mm 3 mps 735 mmHg 90%
    19:00 +16°C° 0 mm 2 mps 735 mmHg 90%
    20:00 +15°C° 0 mm 2 mps 735 mmHg 90%
    21:00 +15°C° 0 mm 1 mps 735 mmHg 90%
    22:00 +15°C° 0 mm 1 mps 735 mmHg 90%
    23:00 +15°C° 0 mm 1 mps 735 mmHg 89%

    27 October, Sunday

    Time Temperature Precipitation Wind Pressure Humidity
    00:00 +15°C° 0 mm 1 mps 735 mmHg 89%
    01:00 +14°C° 0 mm 0 mps 735 mmHg 88%
    02:00 +14°C° 0 mm 0 mps 735 mmHg 87%
    03:00 +14°C° 0 mm 0 mps 735 mmHg 86%
    04:00 +14°C° 0 mm 0 mps 735 mmHg 86%
    05:00 +13°C° 0 mm 0 mps 735 mmHg 86%
    06:00 +13°C° 0 mm 0 mps 735 mmHg 87%
    07:00 +14°C° 0 mm 0 mps 735 mmHg 82%
    08:00 +15°C° 0 mm 0 mps 735 mmHg 78%
    09:00 +16°C° 0 mm 1 mps 735 mmHg 74%
    10:00 +18°C° 0 mm 1 mps 735 mmHg 69%
    11:00 +19°C° 0 mm 1 mps 735 mmHg 65%
    12:00 +19°C° 0 mm 2 mps 735 mmHg 60%
    13:00 +19°C° 0 mm 2 mps 734 mmHg 58%
    14:00 +19°C° 0 mm 2 mps 734 mmHg 56%
    15:00 +20°C° 0 mm 2 mps 734 mmHg 54%
    16:00 +19°C° 0 mm 2 mps 734 mmHg 56%
    17:00 +19°C° 0 mm 1 mps 734 mmHg 59%
    18:00 +18°C° 0 mm 1 mps 734 mmHg 61%
    19:00 +18°C° 0 mm 1 mps 734 mmHg 64%
    20:00 +16°C° 0 mm 1 mps 734 mmHg 68%
    21:00 +16°C° 0 mm 1 mps 734 mmHg 71%
    22:00 +15°C° 0 mm 1 mps 734 mmHg 73%
    23:00 +14°C° 0 mm 0 mps 734 mmHg 75%
    Show more